Location: Andershausen
(51.8462°N, 9.8595°E)
Time: 09:57:23
(UTC+00:00)

ATLAS 2AS CENTAUR R/B - Pass Details

Date: 18 November 2025
Orbit: 1047 x 1163 km, 63.7° (Epoch: 11 December)

Event Time Altitude Azimuth Distance (km) Brightness Sun altitude
Rises 19:21:24 0° 314° (NW) 3,846 6.4 -35.9°
Reaches altitude 10° 19:24:07 10° 310° (NW) 2,879 5.6 -36.3°
Enters shadow 19:29:41 48° 263° (W) 1,345 3.4 -37.1°
